EJM65 KMBT-KILM

Flight info

Callsign EJM65
Flight time N/A
Altitude 41000
Route BAMMA REWET ACERB POLYY ILM
Aircraft CL60/M-SBDE1E2E3FGHIJ1J4J5J7M3RWXYZ/LB1V1D1

Departure

Time 2026-05-08 18:52
Airport City of Murfreesboro Airport (KMBT)

Arrival

Time N/A
Airport Wilmington International Airport (KILM)
Time Latitude Longitude Altitude Speed Heading
2026-05-08 18:27 35.87693 -86.38029 619 ft 0 kts 360°
2026-05-08 18:27 35.87693 -86.38030 618 ft 0 kts
2026-05-08 18:48 35.87709 -86.38018 617 ft 8 kts 51°
2026-05-08 18:49 35.87756 -86.37953 618 ft 10 kts 46°
2026-05-08 18:49 35.87812 -86.37875 618 ft 14 kts 52°
2026-05-08 18:49 35.87901 -86.37825 616 ft 16 kts
2026-05-08 18:49 35.88031 -86.37819 613 ft 20 kts
2026-05-08 18:50 35.88178 -86.37811 611 ft 18 kts
2026-05-08 18:50 35.88285 -86.37804 610 ft 14 kts
2026-05-08 18:50 35.88398 -86.37798 609 ft 17 kts
2026-05-08 18:50 35.88497 -86.37794 608 ft 10 kts
2026-05-08 18:51 35.88513 -86.37749 607 ft 8 kts 93°
2026-05-08 18:51 35.88497 -86.37710 608 ft 0 kts 186°
2026-05-08 18:51 35.88491 -86.37711 608 ft 7 kts 187°
2026-05-08 18:51 35.88125 -86.37734 612 ft 106 kts 181°
2026-05-08 18:52 35.87103 -86.37782 876 ft 171 kts 182°
2026-05-08 18:52 35.85966 -86.37803 2078 ft 168 kts 181°
2026-05-08 18:52 35.84738 -86.37856 2862 ft 196 kts 182°
2026-05-08 18:52 35.83231 -86.37938 3344 ft 237 kts 183°
2026-05-08 18:53 35.81509 -86.38034 3854 ft 258 kts 183°
2026-05-08 18:53 35.79669 -86.38094 4840 ft 274 kts 176°
2026-05-08 18:53 35.77871 -86.37379 6090 ft 280 kts 147°
2026-05-08 18:53 35.76569 -86.35629 7306 ft 286 kts 117°
2026-05-08 18:54 35.76114 -86.33295 8455 ft 292 kts 88°
2026-05-08 18:54 35.76448 -86.30842 9518 ft 299 kts 76°
2026-05-08 18:54 35.76952 -86.28334 10522 ft 309 kts 76°
2026-05-08 18:54 35.77508 -86.25644 10864 ft 342 kts 76°
2026-05-08 18:55 35.78747 -86.19746 12352 ft 371 kts 75°
2026-05-08 18:55 35.79389 -86.16629 13141 ft 383 kts 75°
2026-05-08 18:55 35.80035 -86.13407 13944 ft 394 kts 75°
2026-05-08 18:56 35.80678 -86.10119 14728 ft 404 kts 75°
2026-05-08 18:56 35.81323 -86.06754 15490 ft 413 kts 75°
2026-05-08 18:56 35.81971 -86.03279 16314 ft 420 kts 78°
2026-05-08 18:56 35.82128 -85.99682 17103 ft 428 kts 96°
2026-05-08 18:57 35.81593 -85.96040 17835 ft 436 kts 103°
2026-05-08 18:57 35.80962 -85.92380 18556 ft 444 kts 103°
2026-05-08 18:57 35.80334 -85.88698 19313 ft 449 kts 103°
2026-05-08 18:57 35.79687 -85.84908 20008 ft 456 kts 103°
2026-05-08 18:58 35.79026 -85.81036 20693 ft 463 kts 103°
2026-05-08 18:58 35.78366 -85.77178 21352 ft 470 kts 103°
2026-05-08 18:58 35.77691 -85.73241 22027 ft 475 kts 103°
2026-05-08 18:58 35.77007 -85.69251 22687 ft 479 kts 103°
2026-05-08 18:59 35.76317 -85.65234 23319 ft 484 kts 104°
2026-05-08 18:59 35.75618 -85.61170 23926 ft 489 kts 104°
2026-05-08 18:59 35.74910 -85.57063 24507 ft 495 kts 104°
2026-05-08 18:59 35.74196 -85.52930 25067 ft 500 kts 104°
2026-05-08 19:00 35.73465 -85.48705 25621 ft 505 kts 104°
2026-05-08 19:00 35.72740 -85.44522 26235 ft 507 kts 104°
2026-05-08 19:00 35.72010 -85.40286 26881 ft 508 kts 104°
2026-05-08 19:00 35.71272 -85.36037 27456 ft 511 kts 104°
2026-05-08 19:01 35.70519 -85.31753 28000 ft 514 kts 105°
2026-05-08 19:01 35.69765 -85.27473 28536 ft 518 kts 106°
2026-05-08 19:01 35.68998 -85.23132 29085 ft 521 kts 106°
2026-05-08 19:01 35.68292 -85.18724 29639 ft 526 kts 103°
2026-05-08 19:02 35.67700 -85.14255 30181 ft 529 kts 102°
2026-05-08 19:02 35.67113 -85.09771 30723 ft 532 kts 102°
2026-05-08 19:02 35.66530 -85.05296 31284 ft 533 kts 103°
2026-05-08 19:02 35.65937 -85.00805 31783 ft 535 kts 103°
2026-05-08 19:03 35.65340 -84.96294 32362 ft 535 kts 103°
2026-05-08 19:03 35.64742 -84.91799 32945 ft 534 kts 103°
2026-05-08 19:03 35.64143 -84.87302 33520 ft 534 kts 103°
2026-05-08 19:03 35.63549 -84.82854 34070 ft 533 kts 103°
2026-05-08 19:04 35.62944 -84.78342 34604 ft 533 kts 104°
2026-05-08 19:04 35.62340 -84.73855 35110 ft 533 kts 104°
2026-05-08 19:04 35.61743 -84.69421 35583 ft 533 kts 104°
2026-05-08 19:04 35.61131 -84.64899 36051 ft 533 kts 104°
2026-05-08 19:05 35.60523 -84.60414 36491 ft 534 kts 104°
2026-05-08 19:05 35.59911 -84.55913 36886 ft 535 kts 104°
2026-05-08 19:05 35.59304 -84.51463 37257 ft 536 kts 104°
2026-05-08 19:05 35.58682 -84.46915 37625 ft 537 kts 104°
2026-05-08 19:06 35.58069 -84.42445 37980 ft 538 kts 104°
2026-05-08 19:06 35.57444 -84.37905 38314 ft 539 kts 104°
2026-05-08 19:06 35.56826 -84.33421 38647 ft 539 kts 105°
2026-05-08 19:06 35.56200 -84.28892 38952 ft 539 kts 105°
2026-05-08 19:07 35.55568 -84.24339 39229 ft 539 kts 105°
2026-05-08 19:07 35.54940 -84.19823 39509 ft 540 kts 105°
2026-05-08 19:07 35.54307 -84.15286 39791 ft 540 kts 104°
2026-05-08 19:07 35.53674 -84.10755 40089 ft 540 kts 104°
2026-05-08 19:08 35.53037 -84.06220 40382 ft 540 kts 104°
2026-05-08 19:08 35.52406 -84.01729 40637 ft 540 kts 104°
2026-05-08 19:08 35.51767 -83.97199 40902 ft 539 kts 104°
2026-05-08 19:08 35.51128 -83.92677 41102 ft 540 kts 104°
2026-05-08 19:09 35.50487 -83.88169 41101 ft 546 kts 104°
2026-05-08 19:09 35.49165 -83.78906 41107 ft 555 kts 104°
2026-05-08 19:10 35.47825 -83.69560 41118 ft 564 kts 103°
2026-05-08 19:10 35.46456 -83.60067 41122 ft 571 kts 103°
2026-05-08 19:11 35.45062 -83.50449 41126 ft 577 kts 103°
2026-05-08 19:11 35.43655 -83.40792 41135 ft 581 kts 103°
2026-05-08 19:12 35.42225 -83.31036 41147 ft 581 kts 104°
2026-05-08 19:12 35.40815 -83.21336 41104 ft 581 kts 103°
2026-05-08 19:13 35.39452 -83.11583 41109 ft 580 kts 103°
2026-05-08 19:13 35.38083 -83.01857 41104 ft 580 kts 103°
2026-05-08 19:14 35.36710 -82.92164 41092 ft 580 kts 103°
2026-05-08 19:14 35.35334 -82.82507 41077 ft 580 kts 103°
2026-05-08 19:15 35.33941 -82.72797 41060 ft 580 kts 103°
2026-05-08 19:15 35.32539 -82.63077 41069 ft 580 kts 103°
2026-05-08 19:16 35.31137 -82.53418 41078 ft 580 kts 103°
2026-05-08 19:16 35.29722 -82.43720 41071 ft 581 kts 102°
2026-05-08 19:17 35.28294 -82.33993 41061 ft 581 kts 103°
2026-05-08 19:17 35.26873 -82.24373 41049 ft 579 kts 103°
2026-05-08 19:18 35.25435 -82.14687 41041 ft 580 kts 103°
2026-05-08 19:18 35.23992 -82.05032 41053 ft 580 kts 103°
2026-05-08 19:19 35.22539 -81.95361 41066 ft 581 kts 103°
2026-05-08 19:19 35.21075 -81.85668 41069 ft 581 kts 103°
2026-05-08 19:20 35.19607 -81.76004 41071 ft 581 kts 103°
2026-05-08 19:20 35.18121 -81.66279 41074 ft 581 kts 103°
2026-05-08 19:21 35.16640 -81.56633 41076 ft 581 kts 103°
2026-05-08 19:21 35.15151 -81.46991 41075 ft 581 kts 103°
2026-05-08 19:22 35.13643 -81.37286 41073 ft 581 kts 103°
2026-05-08 19:22 35.12135 -81.27625 41075 ft 580 kts 103°
2026-05-08 19:23 35.10622 -81.17991 41076 ft 580 kts 103°
2026-05-08 19:23 35.08798 -81.08477 41073 ft 577 kts 111°
2026-05-08 19:24 35.06425 -80.99108 41070 ft 578 kts 111°
2026-05-08 19:24 35.04067 -80.89797 41073 ft 578 kts 111°
2026-05-08 19:25 35.01690 -80.80432 41076 ft 578 kts 111°
2026-05-08 19:25 34.99316 -80.71102 41076 ft 577 kts 111°
2026-05-08 19:26 34.96944 -80.61800 41074 ft 577 kts 111°
2026-05-08 19:26 34.94568 -80.52513 41072 ft 577 kts 111°
2026-05-08 19:27 34.92172 -80.43176 41070 ft 578 kts 111°
2026-05-08 19:27 34.89777 -80.33871 41067 ft 578 kts 111°
2026-05-08 19:28 34.87373 -80.24562 41066 ft 577 kts 111°
2026-05-08 19:28 34.84974 -80.15303 41071 ft 577 kts 111°
2026-05-08 19:29 34.82565 -80.06038 41076 ft 577 kts 111°
2026-05-08 19:29 34.80254 -79.96659 41075 ft 580 kts 107°
2026-05-08 19:30 34.78311 -79.87206 41076 ft 580 kts 107°
2026-05-08 19:30 34.76357 -79.77766 41075 ft 580 kts 107°
2026-05-08 19:31 34.74376 -79.68243 41075 ft 579 kts 107°
2026-05-08 19:31 34.72399 -79.58787 41080 ft 580 kts 107°
2026-05-08 19:32 34.70422 -79.49370 41086 ft 579 kts 107°
2026-05-08 19:32 34.68430 -79.39928 41085 ft 580 kts 107°
2026-05-08 19:33 34.66428 -79.30481 41084 ft 579 kts 107°
2026-05-08 19:33 34.64412 -79.21008 41084 ft 578 kts 107°
2026-05-08 19:34 34.62401 -79.11596 41084 ft 578 kts 107°
2026-05-08 19:34 34.60381 -79.02181 41084 ft 578 kts 107°
2026-05-08 19:35 34.58357 -78.92791 41085 ft 579 kts 107°
2026-05-08 19:35 34.56315 -78.83353 41085 ft 579 kts 107°
2026-05-08 19:36 34.54277 -78.73969 41084 ft 579 kts 107°
2026-05-08 19:36 34.52220 -78.64542 41084 ft 579 kts 107°
2026-05-08 19:37 34.50166 -78.55162 41084 ft 579 kts 107°
2026-05-08 19:37 34.48109 -78.45808 41084 ft 579 kts 107°
2026-05-08 19:38 34.46035 -78.36413 41083 ft 579 kts 107°
2026-05-08 19:38 34.43955 -78.27026 41083 ft 577 kts 108°
2026-05-08 19:39 34.41869 -78.17649 41083 ft 577 kts 108°
2026-05-08 19:39 34.39784 -78.08313 41084 ft 577 kts 108°
2026-05-08 19:40 34.37694 -77.98996 41085 ft 578 kts 108°
2026-05-08 19:40 34.35580 -77.89603 41084 ft 578 kts 108°
2026-05-08 19:41 34.33476 -77.80292 41085 ft 578 kts 108°
2026-05-08 19:41 34.31353 -77.70936 41084 ft 577 kts 108°
2026-05-08 19:42 34.29239 -77.61648 41084 ft 577 kts 108°
2026-05-08 19:42 34.27103 -77.52305 41084 ft 577 kts 108°
2026-05-08 19:43 34.24975 -77.43024 41084 ft 577 kts 108°
2026-05-08 19:43 34.22834 -77.33726 41084 ft 576 kts 108°
2026-05-08 19:44 34.20683 -77.24417 41084 ft 575 kts 108°
2026-05-08 19:44 34.18529 -77.15127 41085 ft 575 kts 108°